THEMIS D

Last updated on Fri Dec 19 2025 00:02:42 GMT+0000 (Coordinated Universal Time)

1 30797U 07004D 25352.51755438 -.00000482 00000+0 00000+0 0 9995 2 30797 5.4315 88.2307 8389266 203.5404 81.3507 0.87836445 39498
UTC large
Height (km)
Speed (km/s)
/
Latitude / Longitude
Inclination (degrees)
Orbital Period (minutes)
Azimuth
Elevation
Range (km)
Doppler Factor

Next 0 passes for location: London (51.5072 / 0.1276)

Sorry there are no passes over London.